Погода в Лохеме

Нидерланды     52°09′30″N   6°24′51″E
темп.,
°C
ветер,
м/с
пор.,
м/с
влажн.,
%
обл.,
%
осадки,
мм/ч
давл.,
гПа
погр.,
м
8 марта, пн
пн801:00+2зсз369694 0.3 1023253
04:00+3зсз3698100 0.1 1023237
07:00+3ссз2398100 0.3 1023121
10:00+4всв128095 0.0 1024456
13:00+6ссз226886 0.0 1024801
16:00+7зсз2266100 0.1 1023815
19:00+5з2379100 0.3 1022186
22:00+4юз2488100 0.1 1021401
9 марта, вт
вт901:00+3юз4896100 0.8 1020463
04:00+3ююз61096100 1.8 1018440
07:00+4зюз61094100 4.1 1017446
10:00+6зсз4888100 0.4 1017631
13:00+8зсз467689 0.8 1017843
16:00+8зсз577599 0.4 1017941
19:00+5зсз368767 0.4 1018202
22:00+3з239210 0.0 101950
10 марта, ср
ср1001:00+4зюз229228 0.0 101893
04:00+4юз3692100 0.0 1018219
07:00+2ююз489698 0.0 1018244
10:00+5ююз61086100 0.0 1017487
13:00+8ююз81270100 0.0 1016985
16:00+9ююз81465100 0.0 10141354
19:00+8ююз81570100 0.2 10121236
22:00+7ююз101876100 0.5 10091049
11 марта, чт
чт1101:00+7ююз111985100 1.9 1005838
04:00+8ююз122085100 0.1 1001915
07:00+9ююз112087100 0.8 9981113
10:00+10зюз112276100 3.9 9981661
13:00+11зюз14246078 4.1 9982365
16:00+11зюз12195885 0.2 9992071
19:00+8зюз9176693 0.4 10001441
22:00+7зюз8176899 0.2 10021278
12 марта, пт
пт1201:00+5зюз8157583 0.5 10051053
04:00+5зюз7147815 0.0 1006944
07:00+4юз715808 0.0 1007769
10:00+7зюз9147079 0.0 10071347
13:00+9юз10155990 0.1 10071769
16:00+7юз101681100 0.8 10051297
19:00+6юз101789100 2.4 10031165
22:00+6юз81484100 1.0 1003998